Eagle River, WI

7:37 PM CDT on May 27, 2018 (GMT -0500)
Eagle River Union

Weather History for KEGV - October, 2012

Change the Weather History Date:

Saturday, October 6, 2012

  Actual Average Record
Temperature  
Mean Temperature 36 °F -  
Max Temperature 39 °F 57 °F 77 °F (2007)
Min Temperature 32 °F 36 °F 24 °F (1999)
Degree Days  
Heating Degree Days 30    
Moisture  
Dew Point 28 °F    
Average Humidity 81    
Maximum Humidity 100    
Minimum Humidity 56    
Precipitation  
Precipitation 0.00 in - - ()
Sea Level Pressure  
Sea Level Pressure 30.06 in    
Wind  
Wind Speed 9 mph (NW)    
Max Wind Speed 18 mph    
Max Gust Speed 25 mph    
Visibility 9 miles    
Events Snow    
Averages and records for this station are not official NWS values.
T = Trace of Precipitation, MM = Missing Value Source: NWS Daily Summary

Daily Weather History Graph

Daily Weather History Graph

Search for Another Location

Airport or City:

Astronomy

Oct. 06, 2012 Rise Set
Actual Time 7:02 AM CDT 6:26 PM CDT
Civil Twilight 6:32 AM CDT 6:56 PM CDT
Nautical Twilight 5:58 AM CDT 7:30 PM CDT
Astronomical Twilight 5:23 AM CDT 8:05 PM CDT
Moon 10:27 PM CDT (10/6) 1:11 PM CDT (10/6)
Length of Visible Light 12h 23m
Length of Day
11h 24m
Waning Gibbous, 65% of the Moon is Illuminated
Oct 6
Waning Gibbous
Oct 8
Last Quarter
Oct 15
New
Oct 21
First Quarter
Oct 29
Full

Hourly Weather History & Observations

Time (CDT) Temp. Windchill Dew Point Humidity Pressure Visibility Wind Dir Wind Speed Gust Speed Precip Events Conditions
12:15 AM 33.8 °F 25.3 °F 30.2 °F 87% 29.91 in 10.0 mi West 11.5 mph 19.6 mph N/A   Overcast
12:35 AM 33.8 °F 26.4 °F 32.0 °F 93% 29.92 in 5.0 mi West 9.2 mph 18.4 mph N/A Snow Light Snow
12:55 AM 33.8 °F 27.7 °F 32.0 °F 93% 29.92 in 3.0 mi West 6.9 mph 10.4 mph N/A Snow Light Snow
1:15 AM 32.0 °F 26.4 °F 32.0 °F 100% 29.92 in 2.5 mi WNW 5.8 mph - N/A Snow Light Snow
1:55 AM 33.8 °F 27.0 °F 33.8 °F 100% 29.92 in 4.0 mi WNW 8.1 mph - N/A Snow Light Snow
2:15 AM 32.0 °F 24.8 °F 32.0 °F 100% 29.92 in 3.0 mi WNW 8.1 mph - N/A Snow Light Snow
2:35 AM 32.0 °F 25.6 °F 32.0 °F 100% 29.92 in 7.0 mi WNW 6.9 mph - N/A   Overcast
2:55 AM 32.0 °F 24.2 °F 32.0 °F 100% 29.92 in 7.0 mi NW 9.2 mph - N/A Snow Light Snow
3:15 AM 32.0 °F 23.6 °F 32.0 °F 100% 29.93 in 10.0 mi NNW 10.4 mph 21.9 mph N/A   Overcast
3:55 AM 32.0 °F 24.8 °F 32.0 °F 100% 29.94 in 10.0 mi NW 8.1 mph - N/A   Mostly Cloudy
4:15 AM 32.0 °F 23.0 °F 32.0 °F 100% 29.94 in 7.0 mi NNW 11.5 mph 18.4 mph N/A Snow Light Snow
4:35 AM 32.0 °F 23.6 °F 32.0 °F 100% 29.95 in 7.0 mi NW 10.4 mph - N/A Snow Light Snow
4:55 AM 32.0 °F 23.0 °F 32.0 °F 100% 29.95 in 5.0 mi NNW 11.5 mph - N/A Snow Light Snow
5:15 AM 32.0 °F 24.2 °F 32.0 °F 100% 29.96 in 10.0 mi NNW 9.2 mph - N/A   Overcast
5:35 AM 32.0 °F 24.8 °F 30.2 °F 93% 29.96 in 10.0 mi NW 8.1 mph 16.1 mph N/A   Overcast
5:55 AM 32.0 °F 24.2 °F 32.0 °F 100% 29.97 in 4.0 mi NW 9.2 mph - N/A Snow Light Snow
6:15 AM 32.0 °F 24.8 °F 32.0 °F 100% 29.98 in 2.5 mi NW 8.1 mph - N/A Snow Light Snow
6:55 AM 32.0 °F 24.2 °F 32.0 °F 100% 29.99 in 7.0 mi NNW 9.2 mph - N/A Snow Light Snow
7:15 AM 32.0 °F 25.6 °F 32.0 °F 100% 30.00 in 10.0 mi NNW 6.9 mph - N/A   Overcast
7:35 AM 32.0 °F 24.2 °F 32.0 °F 100% 30.01 in 5.0 mi NW 9.2 mph - N/A Snow Light Snow
7:55 AM 32.0 °F 24.2 °F 32.0 °F 100% 30.01 in 10.0 mi NW 9.2 mph - N/A   Overcast
8:15 AM 32.0 °F 24.2 °F 32.0 °F 100% 30.02 in 10.0 mi NNW 9.2 mph - N/A   Overcast
8:35 AM 32.0 °F 23.6 °F 32.0 °F 100% 30.03 in 10.0 mi NNW 10.4 mph - N/A   Overcast
8:55 AM 33.8 °F 25.8 °F 32.0 °F 93% 30.03 in 10.0 mi NNW 10.4 mph 17.3 mph N/A   Overcast
9:15 AM 33.8 °F 25.3 °F 30.2 °F 87% 30.04 in 10.0 mi North 11.5 mph 19.6 mph N/A   Overcast
9:35 AM 35.6 °F 27.5 °F 30.2 °F 81% 30.05 in 10.0 mi NNW 11.5 mph 25.3 mph N/A   Overcast
9:55 AM 33.8 °F 24.8 °F 28.4 °F 81% 30.06 in 10.0 mi NW 12.7 mph 21.9 mph N/A   Overcast
10:15 AM 33.8 °F 24.3 °F 28.4 °F 81% 30.06 in 7.0 mi NW 13.8 mph 19.6 mph N/A Snow Light Snow
10:35 AM 35.6 °F 26.6 °F 28.4 °F 75% 30.07 in 10.0 mi NNW 13.8 mph 20.7 mph N/A   Overcast
10:55 AM 37.4 °F 28.5 °F 30.2 °F 75% 30.08 in 10.0 mi NNW 15.0 mph 20.7 mph N/A   Mostly Cloudy
11:15 AM 35.6 °F 25.2 °F 30.2 °F 81% 30.08 in 10.0 mi North 18.4 mph 24.2 mph N/A   Mostly Cloudy
11:35 AM 33.8 °F 24.8 °F 30.2 °F 87% 30.09 in 4.0 mi North 12.7 mph 24.2 mph N/A Snow Light Snow
11:55 AM 35.6 °F 25.9 °F 26.6 °F 70% 30.09 in 10.0 mi NNW 16.1 mph 25.3 mph N/A   Mostly Cloudy
12:35 PM 37.4 °F 29.3 °F 26.6 °F 65% 30.10 in 10.0 mi NNW 12.7 mph 17.3 mph N/A   Overcast
12:55 PM 37.4 °F 28.2 °F 26.6 °F 65% 30.10 in 10.0 mi NNW 16.1 mph 20.7 mph N/A   Overcast
1:15 PM 35.6 °F 26.2 °F 26.6 °F 70% 30.11 in 10.0 mi NNW 15.0 mph 20.7 mph N/A   Overcast
1:55 PM 37.4 °F 29.8 °F 26.6 °F 65% 30.10 in 10.0 mi North 11.5 mph 19.6 mph N/A   Overcast
2:15 PM 39.2 °F 32.5 °F 24.8 °F 56% 30.09 in 10.0 mi North 10.4 mph 17.3 mph N/A   Overcast
2:35 PM 37.4 °F 28.5 °F 23.0 °F 56% 30.10 in 10.0 mi NNW 15.0 mph 20.7 mph N/A   Overcast
2:55 PM 37.4 °F 29.3 °F 23.0 °F 56% 30.11 in 10.0 mi North 12.7 mph 20.7 mph N/A   Overcast
3:15 PM 37.4 °F 30.3 °F 26.6 °F 65% 30.11 in 10.0 mi North 10.4 mph - N/A   Overcast
3:35 PM 37.4 °F 32.1 °F 23.0 °F 56% 30.11 in 10.0 mi NNW 6.9 mph - N/A   Overcast
3:55 PM 35.6 °F 30.7 °F 26.6 °F 70% 30.11 in 10.0 mi NW 5.8 mph - N/A   Overcast
4:15 PM 35.6 °F 31.7 °F 26.6 °F 70% 30.11 in 7.0 mi NW 4.6 mph - N/A   Overcast
4:35 PM 37.4 °F 30.8 °F 24.8 °F 60% 30.11 in 10.0 mi WNW 9.2 mph - N/A   Overcast
4:55 PM 35.6 °F 29.2 °F 23.0 °F 60% 30.12 in 10.0 mi NW 8.1 mph 16.1 mph N/A   Overcast
5:15 PM 35.6 °F 29.2 °F 23.0 °F 60% 30.12 in 10.0 mi NW 8.1 mph - N/A   Overcast
5:35 PM 35.6 °F 28.6 °F 21.2 °F 56% 30.12 in 10.0 mi WNW 9.2 mph - N/A   Overcast
6:15 PM 35.6 °F 29.9 °F 23.0 °F 60% 30.12 in 10.0 mi NW 6.9 mph - N/A   Overcast
6:35 PM 35.6 °F 29.2 °F 23.0 °F 60% 30.12 in 10.0 mi NW 8.1 mph - N/A   Overcast
6:55 PM 35.6 °F 29.9 °F 23.0 °F 60% 30.13 in 10.0 mi NW 6.9 mph - N/A   Overcast
7:15 PM 35.6 °F 29.9 °F 23.0 °F 60% 30.13 in 10.0 mi NW 6.9 mph - N/A   Overcast
7:35 PM 35.6 °F 32.8 °F 23.0 °F 60% 30.13 in 10.0 mi WNW 3.5 mph - N/A   Overcast
7:55 PM 33.8 °F 27.7 °F 24.8 °F 70% 30.13 in 10.0 mi WNW 6.9 mph - N/A   Overcast
8:15 PM 33.8 °F 30.8 °F 26.6 °F 75% 30.14 in 10.0 mi WNW 3.5 mph - N/A   Overcast
8:35 PM 33.8 °F 29.6 °F 26.6 °F 75% 30.14 in 10.0 mi WNW 4.6 mph - N/A   Overcast
8:55 PM 33.8 °F 28.6 °F 26.6 °F 75% 30.14 in 10.0 mi West 5.8 mph - N/A   Overcast
9:15 PM 33.8 °F 30.8 °F 26.6 °F 75% 30.14 in 10.0 mi WNW 3.5 mph - N/A   Overcast
9:35 PM 32.0 °F 28.7 °F 26.6 °F 80% 30.13 in 10.0 mi West 3.5 mph - N/A   Overcast
9:55 PM 33.8 °F 29.6 °F 26.6 °F 75% 30.14 in 10.0 mi WNW 4.6 mph - N/A   Overcast
10:15 PM 32.0 °F 28.7 °F 26.6 °F 80% 30.14 in 10.0 mi WNW 3.5 mph - N/A   Overcast
10:35 PM 32.0 °F - 26.6 °F 80% 30.13 in 10.0 mi Calm Calm - N/A   Overcast
10:55 PM 32.0 °F 27.5 °F 26.6 °F 80% 30.13 in 10.0 mi West 4.6 mph - N/A   Overcast
11:15 PM 32.0 °F 28.7 °F 26.6 °F 80% 30.13 in 10.0 mi West 3.5 mph - N/A   Overcast
11:35 PM 32.0 °F 28.7 °F 28.4 °F 87% 30.13 in 10.0 mi West 3.5 mph - N/A   Overcast
11:55 PM 32.0 °F 27.5 °F 28.4 °F 87% 30.13 in 10.0 mi West 4.6 mph - N/A   Overcast